Regional Weather Roundup
Issued by NWS

Home | Current Version | Previous Version | Text Only | Print | Product List | Glossary Off
Versions: 1 2 3 4 5 6 7 8 9 10 11 12 13 14 15 16 17 18 19 20 21 22 23 24 25 26 27 28 29 30 31 32 33 34 35 36 37 38 39 40 41 42 43 44 45 46 47 48 49 50

000
ASUS43 KFSD 142202
RWRSD

WEATHER ROUNDUP FOR SOUTH DAKOTA
NATIONAL WEATHER SERVICE SIOUX FALLS SD
400 PM CST THU DEC 14 2017

NOTE: "FAIR" INDICATES FEW OR NO CLOUDS BELOW 12,000 FEET WITH NO
SIGNIFICANT WEATHER AND/OR OBSTRUCTIONS TO VISIBILITY.


SDZ001>005-009-010-012>017-142300-
NORTHWEST AND NORTH CENTRAL SOUTH DAKOTA

CITY           SKY/WX    TMP DP  RH WIND       PRES   REMARKS
BUFFALO          N/A     34  25  69 W16       30.11F WCI  24
FAITH            N/A     33  26  75 NW16      30.15R WCI  23
MOBRIDGE       CLOUDY    36  23  59 NW16      30.10R
$$

SDZ012>016-024>037-041>051-057-063-072>074-142300-
SOUTHWEST AND SOUTH CENTRAL SOUTH DAKOTA

CITY           SKY/WX    TMP DP  RH WIND       PRES   REMARKS
RAPID CTY ARPT CLOUDY    34  22  61 NW24G32   30.19R WCI  21
PIERRE         CLOUDY    34  27  75 N14       30.15R WCI  25
CUSTER         PTSUNNY   25  13  60 W8        30.12R WCI  16
PHILIP         CLOUDY    34  31  88 NW10      30.19R WCI  26
PINE RIDGE     CLOUDY    34  24  67 N12G21    30.20S WCI  25
SPEARFISH      MOCLDY    30  21  69 NW13      30.18F WCI  20
WINNER         CLOUDY    35  30  82 N13       30.14S WCI  26
$$

SDZ004>011-016>023-039-040-142300-
NORTHEAST SOUTH DAKOTA

CITY           SKY/WX    TMP DP  RH WIND       PRES   REMARKS
ABERDEEN       PTCLDY    29  25  85 N12       30.11R WCI  19
WATERTOWN      CLOUDY    27  25  92 NW7       30.05R WCI  19
BROOKINGS      CLOUDY    28  27  93 N15G24    30.05R WCI  17
SISSETON         N/A     27  23  85 NW15      30.07R WCI  15
$$

SDZ017-020-022-023-036>040-048>070-142300-
SOUTHEAST SOUTH DAKOTA

CITY           SKY/WX    TMP DP  RH WIND       PRES   REMARKS
SIOUX FALLS    FLURRIES  33  28  81 NW8       30.05R WCI  26
HURON          CLOUDY    32  28  85 N16       30.11R WCI  21
CHAMBERLAIN    CLOUDY    35  31  85 NW14      30.14R WCI  26
MITCHELL       CLOUDY    35  30  82 N18G24    30.11R WCI  24
YANKTON        CLOUDY    35  30  82 NW10      30.09R WCI  27
$$

ABBREVIATIONS USED IN REMARKS
   TC - TEMPERATURE IN CELSIUS
  WCI - WIND CHILL INDEX
   HX - HEAT INDEX
  VSB - VISIBILITY





USA.gov is the U.S. government's official web portal to all federal, state and local government web resources and services.